Retour au catalogue

STARLINK-30785

ActifCommunicationsVLEO
NORAD 58191·PAYLOAD·🇺🇸 United States

Lancé Oct 30, 2023 depuis Cape Canaveral Space Force Station

Loading…

Prochains Passages (prochaines 24 heures)

TLE

FraisSource: CelesTrak SupGP

Époque: Sep 14, 2026, 22:10 UTC

1 58191C 23167S   26257.92409722 -.00066869  00000+0 -24220-2 0  2575
2 58191  43.0007 154.8390 0001470 271.7369 117.4263 15.27610753    19

Suivez STARLINK-30785 en temps réel avec AllMySat

Download on the App Store